Time,TemperatureF,DewpointF,PressureIn,WindDirection,WindDirectionDegrees,WindSpeedMPH,WindSpeedGustMPH,Humidity,HourlyPrecipIn,Conditions,Clouds,dailyrainin,SoftwareType,DateUTC
2013-02-02 00:03:00,18.0,13.0,-100.00,SSW,200,5.0,9.0,79,0.00,,,-99.99,,2013-02-02 05:03:00,
2013-02-02 00:12:00,18.0,13.0,-100.00,SSW,195,3.0,12.0,80,0.00,,,-99.99,,2013-02-02 05:12:00,
2013-02-02 00:22:00,18.0,13.0,-100.00,SSW,200,5.0,9.0,80,0.00,,,-99.99,,2013-02-02 05:22:00,
2013-02-02 00:33:00,18.0,12.0,-100.00,SSW,210,7.0,12.0,76,0.00,,,-99.99,,2013-02-02 05:33:00,
2013-02-02 00:41:00,18.0,13.0,-100.00,SSW,205,6.0,12.0,78,0.00,,,-99.99,,2013-02-02 05:41:00,
2013-02-02 00:52:00,18.0,13.0,-100.00,SSW,195,4.0,7.0,80,0.00,,,-99.99,,2013-02-02 05:52:00,
2013-02-02 01:02:00,18.0,13.0,-100.00,SSW,200,6.0,11.0,79,0.00,,,-99.99,,2013-02-02 06:02:00,
2013-02-02 01:12:00,18.0,13.0,-100.00,SSE,160,6.0,9.0,79,0.00,,,-99.99,,2013-02-02 06:12:00,
2013-02-02 01:22:00,18.0,13.0,-100.00,South,180,6.0,10.0,78,0.00,,,-99.99,,2013-02-02 06:22:00,
2013-02-02 01:32:00,18.0,13.0,-100.00,South,185,4.0,11.0,79,0.00,,,-99.99,,2013-02-02 06:32:00,
2013-02-02 01:42:00,18.0,13.0,-100.00,SSW,195,4.0,10.0,79,0.00,,,-99.99,,2013-02-02 06:42:00,
2013-02-02 01:51:00,18.0,13.0,-100.00,SSW,200,4.0,9.0,79,0.00,,,-99.99,,2013-02-02 06:51:00,
2013-02-02 02:02:00,18.0,13.0,-100.00,SSW,210,4.0,9.0,80,0.00,,,-99.99,,2013-02-02 07:02:00,
2013-02-02 02:12:00,18.0,13.0,-100.00,SSW,195,4.0,9.0,80,0.00,,,-99.99,,2013-02-02 07:12:00,
2013-02-02 02:21:00,18.0,13.0,-100.00,SW,215,6.0,9.0,80,0.00,,,-99.99,,2013-02-02 07:21:00,
2013-02-02 02:32:00,18.0,13.0,-100.00,SSW,195,4.0,11.0,79,0.00,,,-99.99,,2013-02-02 07:32:00,
2013-02-02 02:42:00,18.0,13.0,-100.00,South,175,4.0,7.0,78,0.00,,,-99.99,,2013-02-02 07:42:00,
2013-02-02 02:51:00,18.0,12.0,-100.00,South,190,4.0,9.0,77,0.00,,,-99.99,,2013-02-02 07:51:00,
2013-02-02 03:01:00,18.0,12.0,-100.00,SSW,195,4.0,12.0,76,0.00,,,-99.99,,2013-02-02 08:01:00,
2013-02-02 03:11:00,18.0,12.0,-100.00,South,180,6.0,10.0,76,0.00,,,-99.99,,2013-02-02 08:11:00,
2013-02-02 03:21:00,18.0,12.0,-100.00,SSW,195,6.0,10.0,76,0.00,,,-99.99,,2013-02-02 08:21:00,
2013-02-02 03:31:00,18.0,12.0,-100.00,South,190,4.0,9.0,75,0.00,,,-99.99,,2013-02-02 08:31:00,
2013-02-02 03:41:00,18.0,12.0,-100.00,SSE,165,4.0,9.0,77,0.00,,,-99.99,,2013-02-02 08:41:00,
2013-02-02 03:52:00,18.0,12.0,-100.00,South,190,2.0,10.0,76,0.00,,,-99.99,,2013-02-02 08:52:00,
2013-02-02 04:01:00,18.0,11.0,-100.00,South,190,5.0,7.0,76,0.00,,,-99.99,,2013-02-02 09:01:00,
2013-02-02 04:11:00,18.0,11.0,-100.00,SSW,195,6.0,9.0,75,0.00,,,-99.99,,2013-02-02 09:11:00,
2013-02-02 04:22:00,18.0,11.0,-100.00,South,185,4.0,8.0,74,0.00,,,-99.99,,2013-02-02 09:22:00,
2013-02-02 04:32:00,17.0,11.0,-100.00,South,190,6.0,9.0,74,0.00,,,-99.99,,2013-02-02 09:32:00,
2013-02-02 04:42:00,18.0,11.0,-100.00,SSW,200,4.0,7.0,74,0.00,,,-99.99,,2013-02-02 09:42:00,
2013-02-02 04:52:00,18.0,11.0,-100.00,South,180,4.0,7.0,74,0.00,,,-99.99,,2013-02-02 09:52:00,
2013-02-02 05:02:00,18.0,11.0,-100.00,SSE,150,4.0,7.0,75,0.00,,,-99.99,,2013-02-02 10:02:00,
2013-02-02 05:11:00,18.0,11.0,-100.00,South,175,5.0,9.0,75,0.00,,,-99.99,,2013-02-02 10:11:00,
2013-02-02 05:21:00,18.0,11.0,-100.00,South,170,6.0,12.0,75,0.00,,,-99.99,,2013-02-02 10:21:00,
2013-02-02 05:32:00,18.0,11.0,-100.00,SSE,165,6.0,11.0,75,0.00,,,-99.99,,2013-02-02 10:32:00,
2013-02-02 05:42:00,18.0,11.0,-100.00,South,175,6.0,9.0,75,0.00,,,-99.99,,2013-02-02 10:42:00,
2013-02-02 05:52:00,18.0,11.0,-100.00,South,170,7.0,12.0,74,0.00,,,-99.99,,2013-02-02 10:52:00,
2013-02-02 06:02:00,18.0,12.0,-100.00,South,170,6.0,9.0,75,0.00,,,-99.99,,2013-02-02 11:02:00,
2013-02-02 06:11:00,18.0,11.0,-100.00,SSE,165,7.0,13.0,75,0.00,,,-99.99,,2013-02-02 11:11:00,
2013-02-02 06:21:00,18.0,11.0,-100.00,SSE,165,7.0,13.0,75,0.00,,,-99.99,,2013-02-02 11:21:00,
2013-02-02 06:32:00,18.0,12.0,-100.00,SSE,165,7.0,12.0,77,0.00,,,-99.99,,2013-02-02 11:32:00,
2013-02-02 06:42:00,18.0,12.0,-100.00,SSE,165,7.0,13.0,78,0.00,,,-99.99,,2013-02-02 11:42:00,
2013-02-02 06:52:00,18.0,12.0,-100.00,SSE,160,8.0,14.0,79,0.00,,,-99.99,,2013-02-02 11:52:00,
2013-02-02 07:02:00,18.0,12.0,-100.00,SSE,165,7.0,14.0,79,0.00,,,-99.99,,2013-02-02 12:02:00,
2013-02-02 07:11:00,18.0,13.0,-100.00,South,170,7.0,15.0,80,0.00,,,-99.99,,2013-02-02 12:11:00,
2013-02-02 07:22:00,18.0,13.0,-100.00,SSE,165,9.0,15.0,80,0.00,,,-99.99,,2013-02-02 12:22:00,
2013-02-02 07:32:00,18.0,13.0,-100.00,South,170,7.0,14.0,81,0.00,,,-99.99,,2013-02-02 12:32:00,
2013-02-02 07:42:00,18.0,13.0,-100.00,SSE,165,6.0,11.0,82,0.55,,,-99.99,,2013-02-02 12:42:00,
2013-02-02 07:52:00,17.0,13.0,-100.00,South,175,4.0,9.0,84,0.00,,,-99.99,,2013-02-02 12:52:00,
2013-02-02 08:03:00,17.0,14.0,-100.00,SSE,160,6.0,12.0,85,1.10,,,-99.99,,2013-02-02 13:03:00,
2013-02-02 08:11:00,17.0,14.0,-100.00,SSE,160,5.0,10.0,87,1.69,,,-99.99,,2013-02-02 13:11:00,
2013-02-02 08:21:00,17.0,15.0,-100.00,SSE,155,7.0,10.0,90,1.69,,,-99.99,,2013-02-02 13:21:00,
2013-02-02 08:32:00,17.0,15.0,-100.00,SE,135,5.0,9.0,92,1.10,,,-99.99,,2013-02-02 13:32:00,
2013-02-02 08:42:00,17.0,16.0,-100.00,SSE,165,7.0,10.0,93,0.55,,,-99.99,,2013-02-02 13:42:00,
2013-02-02 08:52:00,18.0,16.0,-100.00,SSE,165,6.0,12.0,94,0.00,,,-99.99,,2013-02-02 13:52:00,
2013-02-02 09:03:00,18.0,17.0,-100.00,South,170,6.0,14.0,94,0.00,,,-99.99,,2013-02-02 14:03:00,
2013-02-02 09:11:00,18.0,17.0,-100.00,SE,140,7.0,12.0,94,0.00,,,-99.99,,2013-02-02 14:11:00,
2013-02-02 09:22:00,18.0,17.0,-100.00,SSE,160,8.0,14.0,94,0.00,,,-99.99,,2013-02-02 14:22:00,
2013-02-02 09:33:00,19.0,17.0,-100.00,SSE,160,7.0,15.0,93,0.55,,,-99.99,,2013-02-02 14:33:00,
2013-02-02 09:42:00,19.0,17.0,-100.00,SSE,160,7.0,13.0,93,1.10,,,-99.99,,2013-02-02 14:42:00,
2013-02-02 09:52:00,19.0,18.0,-100.00,SSE,160,6.0,13.0,94,1.10,,,-99.99,,2013-02-02 14:52:00,
2013-02-02 10:03:00,19.0,18.0,-100.00,SSE,160,6.0,14.0,94,0.55,,,-99.99,,2013-02-02 15:03:00,
2013-02-02 10:12:00,19.0,18.0,-100.00,SSE,160,8.0,15.0,95,1.69,,,-99.99,,2013-02-02 15:12:00,
2013-02-02 10:22:00,19.0,18.0,-100.00,SSE,160,7.0,12.0,95,1.69,,,-99.99,,2013-02-02 15:22:00,
2013-02-02 10:32:00,19.0,18.0,-100.00,SSE,160,9.0,13.0,96,0.55,,,-99.99,,2013-02-02 15:32:00,
2013-02-02 10:42:00,19.0,19.0,-100.00,South,170,6.0,15.0,96,1.69,,,-99.99,,2013-02-02 15:42:00,
2013-02-02 10:52:00,19.0,19.0,-100.00,SE,140,4.0,12.0,96,1.69,,,-99.99,,2013-02-02 15:52:00,
2013-02-02 11:03:00,20.0,19.0,-100.00,SE,135,6.0,11.0,97,2.83,,,-99.99,,2013-02-02 16:03:00,
2013-02-02 11:12:00,20.0,19.0,-100.00,SSE,165,6.0,14.0,98,0.55,,,-99.99,,2013-02-02 16:12:00,
2013-02-02 11:22:00,20.0,19.0,-100.00,SSE,165,7.0,14.0,98,1.10,,,-99.99,,2013-02-02 16:22:00,
2013-02-02 11:32:00,20.0,19.0,-100.00,SSE,160,10.0,13.0,98,1.69,,,-99.99,,2013-02-02 16:32:00,
2013-02-02 11:42:00,20.0,20.0,-100.00,SSE,160,6.0,12.0,98,0.55,,,-99.99,,2013-02-02 16:42:00,
2013-02-02 11:52:00,20.0,20.0,-100.00,South,170,8.0,13.0,98,1.10,,,-99.99,,2013-02-02 16:52:00,
2013-02-02 12:03:00,21.0,20.0,-100.00,South,170,7.0,12.0,98,1.10,,,-99.99,,2013-02-02 17:03:00,
2013-02-02 12:11:00,21.0,21.0,-100.00,SE,135,6.0,14.0,98,1.10,,,-99.99,,2013-02-02 17:11:00,
2013-02-02 12:22:00,21.0,21.0,-100.00,SSE,165,9.0,14.0,99,0.55,,,-99.99,,2013-02-02 17:22:00,
2013-02-02 12:32:00,22.0,21.0,-100.00,SSE,160,7.0,16.0,99,0.55,,,-99.99,,2013-02-02 17:32:00,
2013-02-02 12:42:00,22.0,21.0,-100.00,South,185,7.0,12.0,98,0.55,,,-99.99,,2013-02-02 17:42:00,
2013-02-02 12:52:00,22.0,22.0,-100.00,SSE,155,9.0,16.0,98,1.10,,,-99.99,,2013-02-02 17:52:00,
2013-02-02 13:03:00,23.0,22.0,-100.00,South,170,6.0,13.0,98,1.10,,,-99.99,,2013-02-02 18:03:00,
2013-02-02 13:12:00,23.0,22.0,-100.00,SSE,165,9.0,14.0,97,1.10,,,-99.99,,2013-02-02 18:12:00,
2013-02-02 13:22:00,23.0,22.0,-100.00,South,175,7.0,12.0,98,0.55,,,-99.99,,2013-02-02 18:22:00,
2013-02-02 13:32:00,23.0,23.0,-100.00,South,170,6.0,15.0,97,0.55,,,-99.99,,2013-02-02 18:32:00,
2013-02-02 13:42:00,24.0,23.0,-100.00,SSW,195,7.0,12.0,97,1.69,,,-99.99,,2013-02-02 18:42:00,
2013-02-02 13:52:00,24.0,23.0,-100.00,SSE,160,9.0,12.0,97,0.55,,,-99.99,,2013-02-02 18:52:00,
2013-02-02 14:02:00,24.0,24.0,-100.00,South,180,7.0,13.0,98,0.55,,,-99.99,,2013-02-02 19:02:00,
2013-02-02 14:12:00,24.0,24.0,-100.00,SSE,160,7.0,12.0,98,0.55,,,-99.99,,2013-02-02 19:12:00,
2013-02-02 14:21:00,25.0,24.0,-100.00,SSE,165,7.0,11.0,98,0.55,,,-99.99,,2013-02-02 19:21:00,
2013-02-02 14:32:00,25.0,25.0,-100.00,SSE,165,7.0,11.0,99,0.55,,,-99.99,,2013-02-02 19:32:00,
2013-02-02 14:42:00,25.0,-99.9,-100.00,SSE,160,4.0,10.0,-999,0.55,,,-99.99,,2013-02-02 19:42:00,
2013-02-02 14:52:00,26.0,-99.9,-100.00,SSE,165,6.0,11.0,-999,1.10,,,-99.99,,2013-02-02 19:52:00,
2013-02-02 15:02:00,26.0,-99.9,-100.00,SSE,165,6.0,10.0,-999,1.10,,,-99.99,,2013-02-02 20:02:00,
2013-02-02 15:12:00,26.0,-99.9,-100.00,South,175,6.0,9.0,-999,0.55,,,-99.99,,2013-02-02 20:12:00,
2013-02-02 15:22:00,26.0,-99.9,-100.00,South,180,4.0,11.0,-999,0.55,,,-99.99,,2013-02-02 20:22:00,
2013-02-02 15:32:00,26.0,-99.9,-100.00,South,185,3.0,9.0,-999,0.00,,,-99.99,,2013-02-02 20:32:00,
2013-02-02 15:42:00,26.0,-99.9,-100.00,South,185,6.0,12.0,-999,0.55,,,-99.99,,2013-02-02 20:42:00,
2013-02-02 15:52:00,27.0,-99.9,-100.00,South,190,3.0,8.0,-999,0.55,,,-99.99,,2013-02-02 20:52:00,
2013-02-02 16:02:00,27.0,-99.9,-100.00,South,170,4.0,10.0,-999,0.55,,,-99.99,,2013-02-02 21:02:00,
2013-02-02 16:11:00,27.0,-99.9,-100.00,South,170,4.0,7.0,-999,0.00,,,-99.99,,2013-02-02 21:11:00,
2013-02-02 16:22:00,27.0,-99.9,-100.00,South,190,4.0,8.0,-999,0.00,,,-99.99,,2013-02-02 21:22:00,
2013-02-02 16:32:00,27.0,-99.9,-100.00,SW,215,2.0,9.0,-999,0.00,,,-99.99,,2013-02-02 21:32:00,
2013-02-02 16:43:00,27.0,-99.9,-100.00,SSW,210,5.0,9.0,-999,0.00,,,-99.99,,2013-02-02 21:43:00,
2013-02-02 16:52:00,27.0,27.0,-100.00,South,185,3.0,7.0,99,0.00,,,-99.99,,2013-02-02 21:52:00,
2013-02-02 17:03:00,27.0,26.0,-100.00,SSW,210,4.0,9.0,99,0.00,,,-99.99,,2013-02-02 22:03:00,
2013-02-02 17:12:00,27.0,27.0,-100.00,SSW,210,2.0,7.0,98,0.00,,,-99.99,,2013-02-02 22:12:00,
2013-02-02 17:21:00,27.0,27.0,-100.00,SSW,195,2.0,8.0,98,0.00,,,-99.99,,2013-02-02 22:21:00,
2013-02-02 17:32:00,27.0,26.0,-100.00,South,175,2.0,6.0,98,0.00,,,-99.99,,2013-02-02 22:32:00,
2013-02-02 17:42:00,27.0,26.0,-100.00,South,180,3.0,6.0,98,0.00,,,-99.99,,2013-02-02 22:42:00,
2013-02-02 17:52:00,27.0,26.0,-100.00,South,180,3.0,6.0,98,0.00,,,-99.99,,2013-02-02 22:52:00,
2013-02-02 18:02:00,27.0,26.0,-100.00,SSE,165,2.0,6.0,99,0.00,,,-99.99,,2013-02-02 23:02:00,
2013-02-02 18:11:00,27.0,26.0,-100.00,South,180,3.0,4.0,99,0.00,,,-99.99,,2013-02-02 23:11:00,
2013-02-02 18:21:00,27.0,26.0,-100.00,South,190,3.0,7.0,99,0.00,,,-99.99,,2013-02-02 23:21:00,
2013-02-02 18:32:00,27.0,27.0,-100.00,South,175,3.0,7.0,99,0.00,,,-99.99,,2013-02-02 23:32:00,
2013-02-02 18:42:00,27.0,26.0,-100.00,South,190,3.0,7.0,99,0.00,,,-99.99,,2013-02-02 23:42:00,
2013-02-02 18:52:00,27.0,27.0,-100.00,South,175,3.0,5.0,99,0.55,,,-99.99,,2013-02-02 23:52:00,
2013-02-02 19:02:00,27.0,27.0,-100.00,SSW,195,4.0,6.0,99,0.00,,,-99.99,,2013-02-03 00:02:00,
2013-02-02 19:11:00,27.0,27.0,-100.00,SSW,205,4.0,7.0,99,0.00,,,-99.99,,2013-02-03 00:11:00,
2013-02-02 19:22:00,27.0,27.0,-100.00,SSW,200,2.0,5.0,99,0.55,,,-99.99,,2013-02-03 00:22:00,
2013-02-02 19:32:00,27.0,-99.9,-100.00,SSW,205,2.0,6.0,-999,0.00,,,-99.99,,2013-02-03 00:32:00,
2013-02-02 19:42:00,27.0,-99.9,-100.00,South,185,3.0,4.0,-999,0.55,,,-99.99,,2013-02-03 00:42:00,
2013-02-02 19:52:00,27.0,-99.9,-100.00,SW,225,2.0,5.0,-999,0.00,,,-99.99,,2013-02-03 00:52:00,
2013-02-02 20:02:00,27.0,-99.9,-100.00,SSW,205,1.0,5.0,-999,0.55,,,-99.99,,2013-02-03 01:02:00,
2013-02-02 20:11:00,27.0,-99.9,-100.00,NW,305,2.0,5.0,-999,1.69,,,-99.99,,2013-02-03 01:11:00,
2013-02-02 20:22:00,27.0,-99.9,-100.00,SSW,210,0.0,2.0,-999,0.55,,,-99.99,,2013-02-03 01:22:00,
2013-02-02 20:32:00,27.0,-99.9,-100.00,WSW,240,1.0,3.0,-999,5.08,,,-99.99,,2013-02-03 01:32:00,
2013-02-02 20:42:00,27.0,-99.9,-100.00,South,190,1.0,2.0,-999,1.69,,,-99.99,,2013-02-03 01:42:00,
2013-02-02 20:52:00,28.0,-99.9,-100.00,WNW,290,1.0,2.0,-999,1.69,,,-99.99,,2013-02-03 01:52:00,
2013-02-02 21:01:00,27.0,-99.9,-100.00,NW,320,0.0,4.0,-999,1.10,,,-99.99,,2013-02-03 02:01:00,
2013-02-02 21:11:00,28.0,-99.9,-100.00,WNW,285,1.0,2.0,-999,0.55,,,-99.99,,2013-02-03 02:11:00,
2013-02-02 21:22:00,27.0,-99.9,-100.00,WNW,285,3.0,6.0,-999,1.69,,,-99.99,,2013-02-03 02:22:00,
2013-02-02 21:32:00,27.0,-99.9,-100.00,West,280,1.0,6.0,-999,0.55,,,-99.99,,2013-02-03 02:32:00,
2013-02-02 21:42:00,27.0,-99.9,-100.00,North,0,4.0,7.0,-999,1.69,,,-99.99,,2013-02-03 02:42:00,
2013-02-02 21:53:00,26.0,-99.9,-100.00,North,355,5.0,7.0,-999,3.94,,,-99.99,,2013-02-03 02:53:00,
2013-02-02 22:02:00,26.0,-99.9,-100.00,North,355,4.0,7.0,-999,3.39,,,-99.99,,2013-02-03 03:02:00,
2013-02-02 22:12:00,26.0,-99.9,-100.00,North,0,3.0,6.0,-999,1.69,,,-99.99,,2013-02-03 03:12:00,
2013-02-02 22:22:00,26.0,-99.9,-100.00,North,0,2.0,3.0,-999,1.10,,,-99.99,,2013-02-03 03:22:00,
2013-02-02 22:32:00,26.0,-99.9,-100.00,North,5,2.0,6.0,-999,1.10,,,-99.99,,2013-02-03 03:32:00,
2013-02-02 22:42:00,26.0,-99.9,-100.00,North,0,6.0,9.0,-999,2.24,,,-99.99,,2013-02-03 03:42:00,
2013-02-02 22:52:00,26.0,-99.9,-100.00,North,0,4.0,6.0,-999,1.69,,,-99.99,,2013-02-03 03:52:00,
2013-02-02 23:02:00,26.0,-99.9,-100.00,North,10,2.0,6.0,-999,1.10,,,-99.99,,2013-02-03 04:02:00,
2013-02-02 23:12:00,26.0,-99.9,-100.00,North,5,1.0,4.0,-999,1.69,,,-99.99,,2013-02-03 04:12:00,
2013-02-02 23:22:00,26.0,-99.9,-100.00,NNE,20,0.0,0.0,-999,0.55,,,-99.99,,2013-02-03 04:22:00,
2013-02-02 23:32:00,26.0,-99.9,-100.00,NNE,15,0.0,1.0,-999,1.69,,,-99.99,,2013-02-03 04:32:00,
2013-02-02 23:42:00,26.0,-99.9,-100.00,NNE,15,0.0,0.0,-999,1.10,,,-99.99,,2013-02-03 04:42:00,
2013-02-02 23:52:00,26.0,-99.9,-100.00,NNE,15,0.0,0.0,-999,1.10,,,-99.99,,2013-02-03 04:52:00,